Eastover, SC

9:39 PM EST on December 09, 2019 (GMT -0500)
McEntire Angs

Weather History for KMMT - November, 2019

Change the Weather History Date:

Tuesday, November 19, 2019

  Actual Average Record
Temperature  
Mean Temperature 48 °F -  
Max Temperature 56 °F 63 °F 75 °F (2001)
Min Temperature 37 °F 42 °F 17 °F (2014)
Degree Days  
Heating Degree Days 18    
Moisture  
Dew Point 45 °F    
Average Humidity 94    
Maximum Humidity 100    
Minimum Humidity 62    
Precipitation  
Precipitation 0.00 in - - ()
Sea Level Pressure  
Sea Level Pressure 29.86 in    
Wind  
Wind Speed 2 mph ()    
Max Wind Speed 9 mph    
Max Gust Speed -    
Visibility 4.5 miles    
Events Fog    
Averages and records for this station are not official NWS values.
T = Trace of Precipitation, MM = Missing Value Source: Averaged Metar Reports

Daily Weather History Graph

Daily Weather History Graph

Search for Another Location

Airport or City:

Astronomy

Nov. 19, 2019 Rise Set
Actual Time 6:59 AM EST 5:17 PM EST
Civil Twilight 6:32 AM EST 5:44 PM EST
Nautical Twilight 6:02 AM EST 6:14 PM EST
Astronomical Twilight 5:32 AM EST 6:44 PM EST
Moon No Moon Rise 1:10 PM EST (11/19)
Length of Visible Light 11h 12m
Length of Day
10h 18m
Waning Gibbous, 52% of the Moon is Illuminated
Nov 19
Waning Gibbous
Nov 19
Last Quarter
Nov 26
New
Dec 4
First Quarter
Dec 12
Full

Hourly Weather History & Observations

Time (EST) Temp. Windchill Dew Point Humidity Pressure Visibility Wind Dir Wind Speed Gust Speed Precip Events Conditions
12:11 AM 44.6 °F - 44.6 °F 100% 29.81 in 0.4 mi Calm Calm - N/A Fog Fog
12:31 AM 42.8 °F 41.1 °F 42.8 °F 100% 29.82 in 0.4 mi SE 3.5 mph - N/A Fog Fog
12:51 AM 44.6 °F 43.1 °F 44.6 °F 100% 29.82 in 0.4 mi East 3.5 mph - N/A Fog Fog
12:56 AM 44.2 °F - 44.2 °F 100% 29.82 in 0.4 mi Calm Calm - N/A Fog Fog
1:11 AM 44.6 °F - 44.6 °F 100% 29.82 in 0.2 mi Calm Calm - N/A Fog Fog
1:21 AM 44.6 °F - 44.6 °F 100% 29.83 in 0.2 mi Calm Calm - N/A Fog Fog
1:31 AM 44.6 °F 43.1 °F 44.6 °F 100% 29.82 in 0.2 mi East 3.5 mph - N/A Fog Fog
1:56 AM 45.3 °F - 45.3 °F 100% 29.82 in 0.4 mi Calm Calm - N/A Fog Fog
2:11 AM 44.6 °F - 44.6 °F 100% 29.82 in 0.9 mi Calm Calm - N/A   Overcast
2:26 AM 44.6 °F 42.2 °F 44.6 °F 100% 29.82 in 1.2 mi SSE 4.6 mph - N/A   Overcast
2:41 AM 44.6 °F - 44.6 °F 100% 29.82 in 0.8 mi Calm Calm - N/A   Overcast
2:56 AM 45.5 °F 43.2 °F 45.5 °F 100% 29.83 in 0.5 mi SSE 4.6 mph - N/A Fog Fog
3:11 AM 46.4 °F 45.2 °F 46.4 °F 100% 29.82 in 0.4 mi ESE 3.5 mph - N/A Fog Fog
3:26 AM 46.4 °F - 46.4 °F 100% 29.82 in 0.2 mi Calm Calm - N/A Fog Fog
3:46 AM 46.4 °F 45.2 °F 46.4 °F 100% 29.82 in 0.2 mi East 3.5 mph - N/A Fog Fog
3:56 AM 45.5 °F 43.2 °F 45.5 °F 100% 29.81 in 0.4 mi East 4.6 mph - N/A Fog Fog
4:56 AM 45.5 °F - 45.5 °F 100% 29.82 in 0.2 mi Calm Calm - N/A Fog Fog
5:26 AM 46.4 °F - 46.4 °F 100% 29.84 in 0.5 mi Calm Calm - N/A Fog Fog
5:56 AM 45.9 °F - 45.9 °F 100% 29.85 in 0.6 mi Calm Calm - N/A Fog Fog
6:11 AM 46.4 °F - 46.4 °F 100% 29.85 in 0.8 mi Calm Calm - N/A   Overcast
6:26 AM 46.4 °F - 46.4 °F 100% 29.85 in 1.0 mi Calm Calm - N/A   Overcast
6:37 AM 46.4 °F - 46.4 °F 100% 29.85 in 3.0 mi Calm Calm - N/A   Overcast
6:56 AM 46.2 °F 45.0 °F 46.2 °F 100% 29.85 in 2.0 mi East 3.5 mph - N/A   Overcast
7:13 AM 46.4 °F 45.2 °F 46.4 °F 100% 29.84 in 2.0 mi East 3.5 mph - N/A   Overcast
7:32 AM 46.4 °F 44.3 °F 46.4 °F 100% 29.84 in 2.5 mi ESE 4.6 mph - N/A   Overcast
7:47 AM 46.4 °F 45.2 °F 46.4 °F 100% 29.84 in 3.0 mi ESE 3.5 mph - N/A   Overcast
7:56 AM 46.2 °F 44.1 °F 46.2 °F 100% 29.85 in 3.0 mi ESE 4.6 mph - N/A   Overcast
8:56 AM 47.5 °F - 47.5 °F 100% 29.86 in 7.0 mi South 4.6 mph - N/A   Overcast
9:56 AM 48.4 °F - 48.4 °F 100% 29.87 in 7.0 mi Calm Calm - N/A   Overcast
10:06 AM 48.2 °F - 48.2 °F 100% 29.87 in 7.0 mi SW 3.5 mph - N/A   Overcast
10:46 AM 50.0 °F - 50.0 °F 100% 29.87 in 10.0 mi SW 3.5 mph - N/A   Overcast
10:56 AM 50.0 °F - 50.0 °F 100% 29.86 in 10.0 mi South 3.5 mph - N/A   Overcast
11:16 AM 51.8 °F - 48.2 °F 88% 29.86 in 10.0 mi SW 3.5 mph - N/A   Overcast
11:26 AM 51.8 °F - 48.2 °F 88% 29.86 in 10.0 mi SSW 4.6 mph - N/A   Overcast
11:56 AM 52.7 °F - 47.1 °F 81% 29.85 in 10.0 mi South 3.5 mph - N/A   Mostly Cloudy
12:16 PM 55.4 °F - 46.4 °F 72% 29.85 in 10.0 mi WNW 4.6 mph - N/A   Mostly Cloudy
12:56 PM 54.5 °F - 45.7 °F 72% 29.84 in 10.0 mi West 4.6 mph - N/A   Mostly Cloudy
1:16 PM 55.4 °F - 46.4 °F 72% 29.84 in 10.0 mi West 5.8 mph - N/A   Partly Cloudy
1:56 PM 55.9 °F - 45.1 °F 67% 29.86 in 10.0 mi West 8.1 mph - N/A   Mostly Cloudy
2:56 PM 56.7 °F - 43.7 °F 62% 29.85 in 10.0 mi WNW 3.5 mph - N/A   Scattered Clouds
3:56 PM 54.7 °F - 44.2 °F 68% 29.85 in 10.0 mi NNW 6.9 mph - N/A   Scattered Clouds
4:56 PM 53.1 °F - 43.9 °F 71% 29.87 in 10.0 mi West 9.2 mph - N/A   Partly Cloudy
5:56 PM 48.2 °F - 43.5 °F 84% 29.90 in 10.0 mi WSW 5.8 mph - N/A   Partly Cloudy
6:56 PM 44.4 °F - 42.3 °F 92% 29.94 in 10.0 mi Calm Calm - N/A   Partly Cloudy
7:56 PM 42.6 °F - 42.4 °F 99% 29.94 in 10.0 mi Calm Calm - N/A   Mostly Cloudy
8:56 PM 41.9 °F - 41.9 °F 100% 29.96 in 7.0 mi Calm Calm - N/A   Partly Cloudy
9:56 PM 39.2 °F - 39.2 °F 100% 29.96 in 7.0 mi Calm Calm - N/A   Clear
10:11 PM 39.2 °F - 39.2 °F 100% 29.96 in 0.6 mi Calm Calm - N/A   Clear
10:26 PM 39.2 °F - 39.2 °F 100% 29.96 in 3.0 mi Calm Calm - N/A   Clear
10:56 PM 39.4 °F - 39.4 °F 100% 29.96 in 8.0 mi Calm Calm - N/A   Partly Cloudy
11:56 PM 37.6 °F - 37.6 °F 100% 29.94 in 5.0 mi Calm Calm - N/A   Clear